Regional Weather Roundup
Issued by NWS

Home | Current Version | Previous Version | Text Only | Print | Product List | Glossary Off
Versions: 1 2 3 4 5 6 7 8 9 10 11 12 13 14 15 16 17 18 19 20 21 22 23 24 25 26 27 28 29 30 31 32 33 34 35 36 37 38 39 40 41 42 43 44 45 46 47 48 49 50

000
ASUS43 KBIS 190810
RWRND

NORTH DAKOTA REGIONAL WEATHER ROUNDUP
NATIONAL WEATHER SERVICE BISMARCK ND
200 AM CST SUN NOV 19 2017

NOTE: "FAIR" INDICATES FEW OR NO CLOUDS BELOW 12,000 FEET WITH NO
SIGNIFICANT WEATHER AND/OR OBSTRUCTIONS TO VISIBILITY.


NDZ001>003-009>011-017-190900-
NORTHWEST NORTH DAKOTA

CITY           SKY/WX    TMP DP  RH WIND       PRES   REMARKS
WILLISTON      CLOUDY    22  18  85 E3        29.95F
MINOT          CLOUDY    21  16  81 SW8       29.94F WCI  11
MINOT AFB      CLOUDY    20  16  83 SW9       29.92F WCI  10
$$

NDZ018>021-031>035-040>046-190900-
SOUTHWEST NORTH DAKOTA

CITY           SKY/WX    TMP DP  RH WIND       PRES   REMARKS
BISMARCK       CLOUDY    16  13  88 CALM      30.02F
DICKINSON      CLOUDY    26  20  77 S12       29.97F WCI  16
GARRISON         N/A     25  21  85 W9        29.96F WCI  15
HETTINGER ARPT CLOUDY    20  15  81 CALM      30.03F
$$

NDZ004>008-012>016-024-026-027-054-190900-
NORTHEAST NORTH DAKOTA

CITY           SKY/WX    TMP DP  RH WIND       PRES   REMARKS
GRAND FORKS    CLEAR     11   7  84 SW6       30.02F WCI   1
GRND FRKS AFB  CLOUDY    10   5  80 W6        30.01F WCI   1
DEVILS LAKE    CLOUDY    13  10  88 W5        29.96F WCI   5
$$

NDZ022-023-025-028>030-036>039-047>053-190900-
SOUTHEAST NORTH DAKOTA

CITY           SKY/WX    TMP DP  RH WIND       PRES   REMARKS
FARGO          CLEAR     12   8  84 CALM      30.05F
JAMESTOWN      CLEAR     13  10  88 SW5       29.98F WCI   5
$$




USA.gov is the U.S. government's official web portal to all federal, state and local government web resources and services.